Overview Statistics Trail Chart Weather Telemetry Raw packets
 

This is the latest recevied weather packets stored in our database for station/object R2AKT-13. If no packets are shown the sender has not sent any weather packets the latest 10 day(s).

<< 50 51 52 53 54 55 56 >>
Time Temp. Humidity Pressure Rain* Wind** Luminosity Snow
1788024896 17.22° C 69% 998.6 hPa - 0.89 m/s, 162° - -
1788024321 17.22° C 68% 998.7 hPa - 0.89 m/s, 152° - -
1788023786 17.78° C 67% 998.6 hPa - 0.89 m/s, 153° - -
1788023301 17.78° C 64% 998.7 hPa - 0.89 m/s, 169° - -
1788022776 17.78° C 64% 998.7 hPa - 0.45 m/s, 161° - -
1788022236 17.78° C 64% 998.6 hPa - 0 m/s - -
1788021701 18.33° C 63% 998.6 hPa - 0.45 m/s, 199° - -
1788021156 18.33° C 62% 998.6 hPa - 0 m/s - -
1788020616 18.33° C 60% 998.7 hPa - 0.89 m/s, 181° - -
1788020086 18.89° C 60% 998.6 hPa - 0.45 m/s, 188° - -
1788019506 19.44° C 57% 998.6 hPa - 0 m/s - -
1788018921 20° C 55% 998.6 hPa - 0 m/s - -
1788018351 20.56° C 53% 998.7 hPa - 0 m/s - -
1788017861 19.44° C 57% 998.7 hPa - 0 m/s - -
1788017339 18.89° C 59% 998.9 hPa - 0 m/s - -
1788016761 19.44° C 58% 998.9 hPa - 0.45 m/s, 226° - -
1788016196 19.44° C 57% 999 hPa - 0 m/s - -
1788015651 19.44° C 57% 999 hPa - 0 m/s - -
1788015146 19.44° C 57% 999 hPa - 0 m/s - -
1788014640 18.89° C 60% 999.1 hPa - 0 m/s - -
1788014141 18.89° C 60% 999.1 hPa - 0.45 m/s, 198° - -
1788013601 18.89° C 60% 999.2 hPa - 0.45 m/s, 185° - -
1788013086 19.44° C 58% 999.2 hPa - 0.45 m/s, 185° - -
1788012556 20.56° C 55% 999.1 hPa - 0 m/s - -
1788011976 20.56° C 54% 999.2 hPa - 0 m/s - -

* Rain since midnight (hover to see other rain measurements)
** Current wind speed in m/s (hover to see current wind gust speed)